PRIVATE WETTERSTATION BILLIGHEIM-ALLFELD                       ZURCK
Wetterdaten: Samstag, 18.11.2017
Datum Zeit Temp. A. Temp. A. min Temp. A. max Feuchte A. Luftdruck Regen Wind Richtung Richtung Sonnenschein ET Solar Taupunkt Windchill Windben Empfang
18.11.2017 00:00 3,4 C 3,4 C 3,4 C 91 % 1024,9 hPa 0,0 l/m 0,0 km/h (0 Bft) S-SW 198 0 min 0,000 mm 0 W/m 2,1 C 3,4 C 0,0 km/h (0 Bft) 100 %
18.11.2017 00:10 3,4 C 3,4 C 3,4 C 91 % 1024,9 hPa 0,0 l/m 0,0 km/h (0 Bft) S-SW 198 0 min 0,000 mm 0 W/m 2,1 C 3,4 C 0,0 km/h (0 Bft) 100 %
18.11.2017 00:20 3,5 C 3,4 C 3,5 C 91 % 1024,8 hPa 0,0 l/m 0,0 km/h (0 Bft) S-SW 198 0 min 0,000 mm 0 W/m 2,2 C 3,5 C 0,0 km/h (0 Bft) 99 %
18.11.2017 00:30 3,5 C 3,5 C 3,5 C 91 % 1024,8 hPa 0,0 l/m 0,0 km/h (0 Bft) S-SW 198 0 min 0,000 mm 0 W/m 2,2 C 3,5 C 0,0 km/h (0 Bft) 100 %
18.11.2017 00:40 3,5 C 3,5 C 3,6 C 92 % 1024,8 hPa 0,0 l/m 0,0 km/h (0 Bft) S-SW 198 0 min 0,000 mm 0 W/m 2,3 C 3,5 C 0,0 km/h (0 Bft) 100 %
18.11.2017 00:50 3,5 C 3,5 C 3,6 C 92 % 1024,7 hPa 0,0 l/m 0,0 km/h (0 Bft) S-SW 198 0 min 0,000 mm 0 W/m 2,3 C 3,5 C 0,0 km/h (0 Bft) 100 %
18.11.2017 01:00 3,5 C 3,5 C 3,6 C 91 % 1024,7 hPa 0,0 l/m 0,0 km/h (0 Bft) S-SW 198 0 min 0,000 mm 0 W/m 2,2 C 3,5 C 0,0 km/h (0 Bft) 100 %
18.11.2017 01:10 3,6 C 3,5 C 3,6 C 92 % 1024,7 hPa 0,0 l/m 0,0 km/h (0 Bft) S-SW 198 0 min 0,000 mm 0 W/m 2,4 C 3,6 C 0,0 km/h (0 Bft) 99 %
18.11.2017 01:20 3,6 C 3,6 C 3,6 C 92 % 1024,7 hPa 0,0 l/m 0,0 km/h (0 Bft) S-SW 198 0 min 0,000 mm 0 W/m 2,4 C 3,6 C 0,0 km/h (0 Bft) 100 %
18.11.2017 01:30 3,6 C 3,6 C 3,6 C 92 % 1024,7 hPa 0,0 l/m 0,0 km/h (0 Bft) S-SW 198 0 min 0,000 mm 0 W/m 2,4 C 3,6 C 0,0 km/h (0 Bft) 100 %
18.11.2017 01:40 3,6 C 3,6 C 3,6 C 92 % 1024,5 hPa 0,0 l/m 0,0 km/h (0 Bft) S-SW 198 0 min 0,000 mm 0 W/m 2,4 C 3,6 C 0,0 km/h (0 Bft) 100 %
18.11.2017 01:50 3,6 C 3,6 C 3,6 C 92 % 1024,4 hPa 0,0 l/m 0,0 km/h (0 Bft) S-SW 198 0 min 0,000 mm 0 W/m 2,4 C 3,6 C 0,0 km/h (0 Bft) 100 %
18.11.2017 02:00 3,6 C 3,6 C 3,6 C 92 % 1024,4 hPa 0,0 l/m 0,0 km/h (0 Bft) S-SW 198 0 min 0,000 mm 0 W/m 2,4 C 3,6 C 0,0 km/h (0 Bft) 100 %
18.11.2017 02:10 3,6 C 3,6 C 3,6 C 92 % 1024,3 hPa 0,0 l/m 0,0 km/h (0 Bft) S-SW 198 0 min 0,000 mm 0 W/m 2,4 C 3,6 C 0,0 km/h (0 Bft) 100 %
18.11.2017 02:20 3,6 C 3,6 C 3,6 C 92 % 1024,3 hPa 0,0 l/m 0,0 km/h (0 Bft) S-SW 198 0 min 0,000 mm 0 W/m 2,4 C 3,6 C 0,0 km/h (0 Bft) 100 %
18.11.2017 02:30 3,6 C 3,6 C 3,6 C 92 % 1024,5 hPa 0,0 l/m 0,0 km/h (0 Bft) S-SW 198 0 min 0,000 mm 0 W/m 2,4 C 3,6 C 0,0 km/h (0 Bft) 100 %
18.11.2017 02:40 3,6 C 3,6 C 3,6 C 92 % 1024,3 hPa 0,0 l/m 0,0 km/h (0 Bft) S-SW 198 0 min 0,000 mm 0 W/m 2,4 C 3,6 C 0,0 km/h (0 Bft) 100 %
18.11.2017 02:50 3,6 C 3,6 C 3,6 C 92 % 1024,3 hPa 0,0 l/m 0,0 km/h (0 Bft) S-SW 198 0 min 0,000 mm 0 W/m 2,4 C 3,6 C 0,0 km/h (0 Bft) 100 %
18.11.2017 03:00 3,6 C 3,6 C 3,6 C 92 % 1024,2 hPa 0,0 l/m 0,0 km/h (0 Bft) S-SW 198 0 min 0,000 mm 0 W/m 2,4 C 3,6 C 0,0 km/h (0 Bft) 100 %
18.11.2017 03:10 3,6 C 3,5 C 3,6 C 92 % 1024,1 hPa 0,0 l/m 0,0 km/h (0 Bft) S-SW 198 0 min 0,000 mm 0 W/m 2,4 C 3,6 C 0,0 km/h (0 Bft) 100 %
18.11.2017 03:20 3,5 C 3,5 C 3,6 C 91 % 1024,2 hPa 0,0 l/m 0,0 km/h (0 Bft) S-SW 198 0 min 0,000 mm 0 W/m 2,2 C 3,5 C 0,0 km/h (0 Bft) 100 %
18.11.2017 03:30 3,4 C 3,4 C 3,5 C 91 % 1024,1 hPa 0,0 l/m 0,0 km/h (0 Bft) S-SW 198 0 min 0,000 mm 0 W/m 2,1 C 3,4 C 0,0 km/h (0 Bft) 100 %
18.11.2017 03:40 3,4 C 3,4 C 3,5 C 91 % 1023,8 hPa 0,0 l/m 0,0 km/h (0 Bft) S-SW 198 0 min 0,000 mm 0 W/m 2,1 C 3,4 C 0,0 km/h (0 Bft) 99 %
18.11.2017 03:50 3,4 C 3,4 C 3,5 C 91 % 1023,8 hPa 0,0 l/m 0,0 km/h (0 Bft) S-SW 198 0 min 0,000 mm 0 W/m 2,1 C 3,4 C 0,0 km/h (0 Bft) 100 %
18.11.2017 04:00 3,4 C 3,4 C 3,4 C 91 % 1023,7 hPa 0,0 l/m 0,0 km/h (0 Bft) S-SW 198 0 min 0,000 mm 0 W/m 2,1 C 3,4 C 0,0 km/h (0 Bft) 100 %
18.11.2017 04:10 3,4 C 3,4 C 3,4 C 91 % 1023,6 hPa 0,0 l/m 0,0 km/h (0 Bft) S-SW 198 0 min 0,000 mm 0 W/m 2,1 C 3,4 C 0,0 km/h (0 Bft) 100 %
18.11.2017 04:20 3,3 C 3,3 C 3,4 C 91 % 1023,7 hPa 0,0 l/m 1,2 km/h (1 Bft) S-SW 198 0 min 0,000 mm 0 W/m 2,0 C 3,3 C 4,8 km/h (1 Bft) 100 %
18.11.2017 04:30 3,3 C 3,3 C 3,4 C 91 % 1023,5 hPa 0,0 l/m 0,5 km/h (0 Bft) S-SW 198 0 min 0,000 mm 0 W/m 2,0 C 3,3 C 4,8 km/h (1 Bft) 99 %
18.11.2017 04:40 3,3 C 3,3 C 3,3 C 91 % 1023,6 hPa 0,0 l/m 0,6 km/h (0 Bft) S-SW 198 0 min 0,000 mm 0 W/m 2,0 C 3,3 C 3,2 km/h (1 Bft) 99 %
18.11.2017 04:50 3,3 C 3,3 C 3,3 C 92 % 1023,4 hPa 0,0 l/m 0,5 km/h (0 Bft) S-SW 198 0 min 0,000 mm 0 W/m 2,1 C 3,3 C 3,2 km/h (1 Bft) 99 %
18.11.2017 05:00 3,3 C 3,3 C 3,3 C 92 % 1023,4 hPa 0,0 l/m 0,0 km/h (0 Bft) S-SW 198 0 min 0,000 mm 0 W/m 2,1 C 3,3 C 0,0 km/h (0 Bft) 100 %
18.11.2017 05:10 3,3 C 3,3 C 3,3 C 92 % 1023,5 hPa 0,0 l/m 0,0 km/h (0 Bft) S-SW 198 0 min 0,000 mm 0 W/m 2,1 C 3,3 C 0,0 km/h (0 Bft) 99 %
18.11.2017 05:20 3,3 C 3,3 C 3,4 C 92 % 1023,4 hPa 0,0 l/m 0,0 km/h (0 Bft) S-SW 198 0 min 0,000 mm 0 W/m 2,1 C 3,3 C 0,0 km/h (0 Bft) 100 %
18.11.2017 05:30 3,4 C 3,3 C 3,4 C 92 % 1023,4 hPa 0,0 l/m 0,7 km/h (0 Bft) S-SW 200 0 min 0,000 mm 0 W/m 2,2 C 3,4 C 4,8 km/h (1 Bft) 100 %
18.11.2017 05:40 3,4 C 3,4 C 3,4 C 92 % 1023,4 hPa 0,0 l/m 0,1 km/h (0 Bft) S-SW 201 0 min 0,000 mm 0 W/m 2,2 C 3,4 C 3,2 km/h (1 Bft) 100 %
18.11.2017 05:50 3,4 C 3,4 C 3,4 C 92 % 1023,4 hPa 0,0 l/m 0,1 km/h (0 Bft) S-SW 201 0 min 0,000 mm 0 W/m 2,2 C 3,4 C 3,2 km/h (1 Bft) 100 %
18.11.2017 06:00 3,4 C 3,4 C 3,4 C 92 % 1023,3 hPa 0,0 l/m 0,9 km/h (0 Bft) S-SW 213 0 min 0,000 mm 0 W/m 2,2 C 3,4 C 4,8 km/h (1 Bft) 100 %
18.11.2017 06:10 3,4 C 3,4 C 3,4 C 92 % 1023,3 hPa 0,0 l/m 0,0 km/h (0 Bft) S-SW 213 0 min 0,000 mm 0 W/m 2,2 C 3,4 C 1,6 km/h (1 Bft) 99 %
18.11.2017 06:20 3,4 C 3,4 C 3,4 C 92 % 1023,4 hPa 0,0 l/m 0,5 km/h (0 Bft) S-SW 213 0 min 0,000 mm 0 W/m 2,2 C 3,4 C 3,2 km/h (1 Bft) 99 %
18.11.2017 06:30 3,3 C 3,3 C 3,4 C 92 % 1023,2 hPa 0,0 l/m 0,2 km/h (0 Bft) W-SW 240 0 min 0,000 mm 0 W/m 2,1 C 3,3 C 6,4 km/h (2 Bft) 99 %
18.11.2017 06:40 3,3 C 3,3 C 3,3 C 92 % 1023,2 hPa 0,0 l/m 0,0 km/h (0 Bft) W-SW 240 0 min 0,000 mm 0 W/m 2,1 C 3,3 C 0,0 km/h (0 Bft) 99 %
18.11.2017 06:50 3,3 C 3,3 C 3,3 C 92 % 1023,3 hPa 0,0 l/m 0,0 km/h (0 Bft) W-SW 240 0 min 0,000 mm 0 W/m 2,1 C 3,3 C 0,0 km/h (0 Bft) 100 %
18.11.2017 07:00 3,3 C 3,3 C 3,3 C 92 % 1023,1 hPa 0,0 l/m 0,8 km/h (0 Bft) SW 236 0 min 0,000 mm 0 W/m 2,1 C 3,3 C 3,2 km/h (1 Bft) 100 %
18.11.2017 07:10 3,2 C 3,2 C 3,3 C 92 % 1023,1 hPa 0,0 l/m 0,6 km/h (0 Bft) SW 236 0 min 0,000 mm 0 W/m 2,0 C 3,2 C 3,2 km/h (1 Bft) 99 %
18.11.2017 07:20 3,1 C 3,1 C 3,2 C 92 % 1023,0 hPa 0,0 l/m 0,3 km/h (0 Bft) SW 236 0 min 0,000 mm 0 W/m 1,9 C 3,1 C 4,8 km/h (1 Bft) 99 %
18.11.2017 07:30 3,1 C 3,1 C 3,2 C 92 % 1023,1 hPa 0,0 l/m 2,0 km/h (1 Bft) SW 234 0 min 0,000 mm 0 W/m 1,9 C 3,1 C 6,4 km/h (2 Bft) 99 %
18.11.2017 07:40 3,1 C 3,1 C 3,1 C 91 % 1023,2 hPa 0,0 l/m 2,3 km/h (1 Bft) SW 233 0 min 0,000 mm 0 W/m 1,8 C 3,1 C 6,4 km/h (2 Bft) 98 %
18.11.2017 07:50 3,0 C 3,0 C 3,1 C 91 % 1023,2 hPa 0,0 l/m 0,0 km/h (0 Bft) SW 233 0 min 0,000 mm 5 W/m 1,7 C 3,0 C 0,0 km/h (0 Bft) 98 %
18.11.2017 08:00 2,8 C 2,8 C 3,0 C 92 % 1023,2 hPa 0,0 l/m 0,0 km/h (0 Bft) SW 233 0 min 0,000 mm 12 W/m 1,6 C 2,8 C 1,6 km/h (1 Bft) 97 %
18.11.2017 08:10 2,7 C 2,7 C 2,8 C 91 % 1023,2 hPa 0,0 l/m 0,8 km/h (0 Bft) SW 232 0 min 0,000 mm 19 W/m 1,4 C 2,7 C 6,4 km/h (2 Bft) 97 %
18.11.2017 08:20 2,7 C 2,7 C 2,7 C 91 % 1023,4 hPa 0,0 l/m 2,1 km/h (1 Bft) SW 232 0 min 0,000 mm 32 W/m 1,4 C 2,7 C 9,7 km/h (2 Bft) 97 %
18.11.2017 08:30 2,8 C 2,7 C 2,8 C 92 % 1023,3 hPa 0,0 l/m 1,2 km/h (1 Bft) W-SW 238 0 min 0,000 mm 23 W/m 1,6 C 2,8 C 4,8 km/h (1 Bft) 98 %
18.11.2017 08:40 2,9 C 2,8 C 2,9 C 92 % 1023,2 hPa 0,0 l/m 0,0 km/h (0 Bft) SW 236 0 min 0,000 mm 33 W/m 1,7 C 2,9 C 0,0 km/h (0 Bft) 97 %
18.11.2017 08:50 2,9 C 2,9 C 3,0 C 92 % 1023,1 hPa 0,0 l/m 1,7 km/h (1 Bft) SW 235 0 min 0,000 mm 30 W/m 1,7 C 2,9 C 4,8 km/h (1 Bft) 97 %
18.11.2017 09:00 2,7 C 2,7 C 2,9 C 91 % 1023,2 hPa 0,0 l/m 2,0 km/h (1 Bft) SW 235 0 min 0,000 mm 42 W/m 1,4 C 2,7 C 3,2 km/h (1 Bft) 98 %
18.11.2017 09:10 2,7 C 2,7 C 2,7 C 91 % 1023,4 hPa 0,0 l/m 3,2 km/h (1 Bft) SW 231 0 min 0,000 mm 33 W/m 1,4 C 2,7 C 8,0 km/h (2 Bft) 97 %
18.11.2017 09:20 2,8 C 2,7 C 2,8 C 92 % 1023,3 hPa 0,0 l/m 0,1 km/h (0 Bft) SW 231 0 min 0,000 mm 19 W/m 1,6 C 2,8 C 3,2 km/h (1 Bft) 97 %
18.11.2017 09:30 3,0 C 2,8 C 3,0 C 92 % 1023,1 hPa 0,0 l/m 0,0 km/h (0 Bft) SW 231 0 min 0,000 mm 19 W/m 1,8 C 3,0 C 0,0 km/h (0 Bft) 97 %
18.11.2017 09:40 3,2 C 3,0 C 3,2 C 92 % 1023,0 hPa 0,0 l/m 1,0 km/h (0 Bft) SW 231 0 min 0,000 mm 32 W/m 2,0 C 3,2 C 4,8 km/h (1 Bft) 98 %
18.11.2017 09:50 3,3 C 3,2 C 3,3 C 92 % 1023,0 hPa 0,0 l/m 1,2 km/h (1 Bft) SW 231 0 min 0,000 mm 32 W/m 2,1 C 3,3 C 4,8 km/h (1 Bft) 98 %
18.11.2017 10:00 3,4 C 3,3 C 3,4 C 92 % 1023,1 hPa 0,0 l/m 0,3 km/h (0 Bft) SW 231 0 min 0,025 mm 30 W/m 2,2 C 3,4 C 4,8 km/h (1 Bft) 97 %
18.11.2017 10:10 3,6 C 3,4 C 3,6 C 92 % 1023,0 hPa 0,0 l/m 2,6 km/h (1 Bft) SW 229 0 min 0,000 mm 35 W/m 2,4 C 3,6 C 4,8 km/h (1 Bft) 97 %
18.11.2017 10:20 3,8 C 3,6 C 3,8 C 92 % 1022,8 hPa 0,0 l/m 0,4 km/h (0 Bft) SW 229 0 min 0,000 mm 58 W/m 2,6 C 3,8 C 3,2 km/h (1 Bft) 97 %
18.11.2017 10:30 4,0 C 3,8 C 4,0 C 92 % 1022,7 hPa 0,0 l/m 3,1 km/h (1 Bft) SW 216 0 min 0,000 mm 84 W/m 2,8 C 4,0 C 9,7 km/h (2 Bft) 97 %
18.11.2017 10:40 4,2 C 4,0 C 4,2 C 92 % 1022,5 hPa 0,0 l/m 4,2 km/h (1 Bft) S-SW 207 0 min 0,000 mm 86 W/m 3,0 C 4,2 C 9,7 km/h (2 Bft) 97 %
18.11.2017 10:50 4,3 C 4,2 C 4,3 C 92 % 1022,6 hPa 0,0 l/m 5,2 km/h (1 Bft) SW 216 0 min 0,000 mm 76 W/m 3,1 C 4,3 C 9,7 km/h (2 Bft) 98 %
18.11.2017 11:00 4,4 C 4,3 C 4,4 C 92 % 1022,6 hPa 0,0 l/m 6,4 km/h (2 Bft) SW 236 0 min 0,026 mm 49 W/m 3,2 C 4,4 C 17,7 km/h (3 Bft) 97 %
18.11.2017 11:10 4,5 C 4,4 C 4,5 C 92 % 1022,6 hPa 0,0 l/m 6,1 km/h (2 Bft) SW 229 0 min 0,000 mm 51 W/m 3,3 C 4,5 C 14,5 km/h (3 Bft) 97 %
18.11.2017 11:20 4,5 C 4,5 C 4,5 C 92 % 1022,5 hPa 0,0 l/m 5,5 km/h (1 Bft) W-SW 253 0 min 0,000 mm 46 W/m 3,3 C 4,5 C 16,1 km/h (3 Bft) 97 %
18.11.2017 11:30 4,5 C 4,4 C 4,5 C 92 % 1022,3 hPa 0,0 l/m 5,7 km/h (1 Bft) W 259 0 min 0,000 mm 116 W/m 3,3 C 4,5 C 11,3 km/h (2 Bft) 97 %
18.11.2017 11:40 4,6 C 4,5 C 4,6 C 92 % 1022,1 hPa 0,0 l/m 8,5 km/h (2 Bft) SW 227 0 min 0,000 mm 98 W/m 3,4 C 2,8 C 19,3 km/h (3 Bft) 98 %
18.11.2017 11:50 4,7 C 4,6 C 4,7 C 92 % 1022,0 hPa 0,0 l/m 10,1 km/h (2 Bft) W-SW 256 0 min 0,000 mm 109 W/m 3,5 C 1,7 C 24,1 km/h (4 Bft) 97 %
18.11.2017 12:00 4,7 C 4,7 C 4,7 C 91 % 1021,8 hPa 0,0 l/m 10,2 km/h (2 Bft) SW 219 10 min 0,051 mm 163 W/m 3,4 C 1,6 C 27,4 km/h (4 Bft) 98 %
18.11.2017 12:10 4,8 C 4,7 C 4,8 C 91 % 1021,6 hPa 0,0 l/m 8,8 km/h (2 Bft) W 267 0 min 0,000 mm 79 W/m 3,5 C 2,7 C 17,7 km/h (3 Bft) 97 %
18.11.2017 12:20 4,9 C 4,8 C 4,9 C 91 % 1021,5 hPa 0,0 l/m 7,7 km/h (2 Bft) W-SW 246 10 min 0,000 mm 158 W/m 3,6 C 3,8 C 22,5 km/h (4 Bft) 97 %
18.11.2017 12:30 5,0 C 4,9 C 5,0 C 91 % 1021,4 hPa 0,0 l/m 8,8 km/h (2 Bft) W 265 0 min 0,000 mm 120 W/m 3,7 C 3,0 C 22,5 km/h (4 Bft) 97 %
18.11.2017 12:40 4,9 C 4,9 C 5,0 C 92 % 1021,3 hPa 0,0 l/m 10,3 km/h (2 Bft) SW 236 0 min 0,000 mm 37 W/m 3,7 C 1,8 C 22,5 km/h (4 Bft) 97 %
18.11.2017 12:50 4,9 C 4,9 C 4,9 C 91 % 1021,3 hPa 0,0 l/m 6,0 km/h (2 Bft) W 263 0 min 0,000 mm 72 W/m 3,6 C 4,9 C 20,9 km/h (4 Bft) 98 %
18.11.2017 13:00 5,0 C 4,9 C 5,0 C 91 % 1021,2 hPa 0,0 l/m 8,5 km/h (2 Bft) W 263 0 min 0,050 mm 25 W/m 3,7 C 3,2 C 20,9 km/h (4 Bft) 97 %
18.11.2017 13:10 4,9 C 4,9 C 5,0 C 91 % 1021,0 hPa 0,0 l/m 8,1 km/h (2 Bft) W-SW 250 0 min 0,000 mm 67 W/m 3,6 C 3,4 C 20,9 km/h (4 Bft) 97 %
18.11.2017 13:20 5,0 C 4,9 C 5,0 C 91 % 1021,0 hPa 0,0 l/m 7,4 km/h (2 Bft) W-NW 291 0 min 0,000 mm 67 W/m 3,7 C 4,1 C 17,7 km/h (3 Bft) 97 %
18.11.2017 13:30 5,0 C 4,9 C 5,1 C 90 % 1020,9 hPa 0,0 l/m 6,9 km/h (2 Bft) W 271 0 min 0,000 mm 35 W/m 3,5 C 4,6 C 22,5 km/h (4 Bft) 97 %
18.11.2017 13:40 5,0 C 4,9 C 5,0 C 89 % 1020,6 hPa 0,0 l/m 8,5 km/h (2 Bft) W-SW 256 0 min 0,000 mm 65 W/m 3,3 C 3,2 C 22,5 km/h (4 Bft) 98 %
18.11.2017 13:50 5,1 C 5,0 C 5,1 C 88 % 1020,7 hPa 0,0 l/m 5,8 km/h (2 Bft) W-SW 254 0 min 0,000 mm 97 W/m 3,3 C 5,1 C 14,5 km/h (3 Bft) 97 %
18.11.2017 14:00 5,3 C 5,1 C 5,3 C 89 % 1020,5 hPa 0,0 l/m 6,4 km/h (2 Bft) W-SW 252 0 min 0,026 mm 104 W/m 3,6 C 5,3 C 12,9 km/h (3 Bft) 98 %
18.11.2017 14:10 5,6 C 5,3 C 5,6 C 87 % 1020,5 hPa 0,0 l/m 7,9 km/h (2 Bft) W 269 0 min 0,000 mm 26 W/m 3,6 C 4,3 C 19,3 km/h (3 Bft) 97 %
18.11.2017 14:20 5,5 C 5,5 C 5,6 C 86 % 1020,5 hPa 0,0 l/m 10,7 km/h (2 Bft) W-SW 243 0 min 0,000 mm 84 W/m 3,3 C 2,2 C 25,7 km/h (4 Bft) 98 %
18.11.2017 14:30 5,4 C 5,4 C 5,5 C 85 % 1020,4 hPa 0,0 l/m 16,2 km/h (3 Bft) W-NW 290 0 min 0,000 mm 35 W/m 3,1 C -1,0 C 32,2 km/h (5 Bft) 98 %
18.11.2017 14:40 5,3 C 5,3 C 5,4 C 85 % 1020,5 hPa 0,0 l/m 12,1 km/h (2 Bft) W 268 0 min 0,000 mm 28 W/m 3,0 C 1,0 C 25,7 km/h (4 Bft) 98 %
18.11.2017 14:50 5,3 C 5,3 C 5,3 C 83 % 1020,6 hPa 0,0 l/m 11,6 km/h (2 Bft) W-SW 254 0 min 0,000 mm 33 W/m 2,7 C 1,3 C 24,1 km/h (4 Bft) 97 %
18.11.2017 15:00 5,2 C 5,2 C 5,3 C 83 % 1020,4 hPa 0,0 l/m 8,0 km/h (2 Bft) W 260 0 min 0,000 mm 25 W/m 2,6 C 3,8 C 22,5 km/h (4 Bft) 98 %
18.11.2017 15:10 5,1 C 5,1 C 5,2 C 81 % 1020,5 hPa 0,0 l/m 10,1 km/h (2 Bft) W-SW 254 0 min 0,025 mm 16 W/m 2,1 C 2,1 C 25,7 km/h (4 Bft) 97 %
18.11.2017 15:20 4,9 C 4,9 C 5,1 C 81 % 1020,4 hPa 0,0 l/m 14,8 km/h (3 Bft) W-SW 244 0 min 0,000 mm 12 W/m 1,9 C -0,9 C 29,0 km/h (5 Bft) 97 %
18.11.2017 15:30 4,8 C 4,8 C 4,9 C 80 % 1020,4 hPa 0,0 l/m 12,3 km/h (3 Bft) NW 311 0 min 0,000 mm 16 W/m 1,6 C 0,3 C 30,6 km/h (5 Bft) 98 %
18.11.2017 15:40 4,7 C 4,7 C 4,8 C 80 % 1020,5 hPa 0,0 l/m 10,4 km/h (2 Bft) W-NW 293 0 min 0,000 mm 18 W/m 1,6 C 1,5 C 22,5 km/h (4 Bft) 97 %
18.11.2017 15:50 4,5 C 4,5 C 4,7 C 78 % 1020,6 hPa 0,0 l/m 13,1 km/h (3 Bft) W-SW 245 0 min 0,000 mm 18 W/m 1,0 C -0,5 C 32,2 km/h (5 Bft) 100 %
18.11.2017 16:00 4,4 C 4,4 C 4,5 C 78 % 1020,3 hPa 0,0 l/m 12,5 km/h (3 Bft) W-SW 254 0 min 0,000 mm 12 W/m 0,9 C -0,2 C 24,1 km/h (4 Bft) 100 %
18.11.2017 16:10 4,2 C 4,2 C 4,4 C 79 % 1020,0 hPa 0,0 l/m 8,5 km/h (2 Bft) W 259 0 min 0,025 mm 0 W/m 0,9 C 2,3 C 20,9 km/h (4 Bft) 100 %
18.11.2017 16:20 4,2 C 4,2 C 4,2 C 79 % 1020,1 hPa 0,0 l/m 6,1 km/h (2 Bft) W 263 0 min 0,001 mm 0 W/m 0,9 C 4,2 C 14,5 km/h (3 Bft) 100 %
18.11.2017 16:30 4,2 C 4,1 C 4,2 C 79 % 1020,1 hPa 0,0 l/m 7,7 km/h (2 Bft) W-SW 256 0 min 0,000 mm 0 W/m 0,9 C 3,0 C 17,7 km/h (3 Bft) 100 %
18.11.2017 16:40 4,1 C 4,1 C 4,2 C 79 % 1020,0 hPa 0,0 l/m 6,5 km/h (2 Bft) SW 229 0 min 0,000 mm 0 W/m 0,8 C 4,0 C 17,7 km/h (3 Bft) 100 %
18.11.2017 16:50 4,1 C 4,1 C 4,1 C 79 % 1020,0 hPa 0,0 l/m 9,2 km/h (2 Bft) SW 219 0 min 0,000 mm 0 W/m 0,8 C 1,7 C 20,9 km/h (4 Bft) 100 %
18.11.2017 17:00 4,1 C 4,1 C 4,1 C 79 % 1020,0 hPa 0,0 l/m 7,3 km/h (2 Bft) S-SW 211 0 min 0,000 mm 0 W/m 0,8 C 3,3 C 19,3 km/h (3 Bft) 100 %
18.11.2017 17:10 4,1 C 4,0 C 4,1 C 80 % 1020,1 hPa 0,0 l/m 3,8 km/h (1 Bft) SW 223 0 min 0,025 mm 0 W/m 1,0 C 4,1 C 12,9 km/h (3 Bft) 100 %
18.11.2017 17:20 4,1 C 4,0 C 4,1 C 79 % 1020,1 hPa 0,0 l/m 6,1 km/h (2 Bft) W-SW 244 0 min 0,000 mm 0 W/m 0,8 C 4,1 C 17,7 km/h (3 Bft) 100 %
18.11.2017 17:30 4,1 C 4,0 C 4,1 C 80 % 1020,1 hPa 0,0 l/m 6,2 km/h (2 Bft) W-SW 254 0 min 0,000 mm 0 W/m 1,0 C 4,1 C 17,7 km/h (3 Bft) 100 %
18.11.2017 17:40 4,0 C 4,0 C 4,1 C 80 % 1020,1 hPa 0,0 l/m 8,2 km/h (2 Bft) SW 225 0 min 0,000 mm 0 W/m 0,9 C 2,4 C 20,9 km/h (4 Bft) 100 %
18.11.2017 17:50 4,0 C 4,0 C 4,0 C 81 % 1020,1 hPa 0,0 l/m 7,4 km/h (2 Bft) W 262 0 min 0,000 mm 0 W/m 1,0 C 3,1 C 20,9 km/h (4 Bft) 100 %
18.11.2017 18:00 3,9 C 3,9 C 4,0 C 81 % 1020,0 hPa 0,0 l/m 8,3 km/h (2 Bft) SW 222 0 min 0,000 mm 0 W/m 0,9 C 2,2 C 19,3 km/h (3 Bft) 100 %
18.11.2017 18:10 3,9 C 3,9 C 3,9 C 82 % 1020,1 hPa 0,0 l/m 7,3 km/h (2 Bft) W-SW 250 0 min 0,025 mm 0 W/m 1,1 C 3,1 C 17,7 km/h (3 Bft) 100 %
18.11.2017 18:20 3,9 C 3,8 C 3,9 C 82 % 1020,1 hPa 0,0 l/m 4,7 km/h (1 Bft) W-SW 250 0 min 0,000 mm 0 W/m 1,1 C 3,9 C 14,5 km/h (3 Bft) 100 %
18.11.2017 18:30 3,8 C 3,8 C 3,9 C 82 % 1020,1 hPa 0,0 l/m 4,8 km/h (1 Bft) SW 232 0 min 0,000 mm 0 W/m 1,0 C 3,8 C 12,9 km/h (3 Bft) 100 %
18.11.2017 18:40 3,8 C 3,8 C 3,8 C 82 % 1019,9 hPa 0,0 l/m 6,1 km/h (2 Bft) W 267 0 min 0,000 mm 0 W/m 1,0 C 3,8 C 16,1 km/h (3 Bft) 100 %
18.11.2017 18:50 3,8 C 3,8 C 3,9 C 83 % 1019,7 hPa 0,0 l/m 8,2 km/h (2 Bft) SW 233 0 min 0,000 mm 0 W/m 1,2 C 2,2 C 22,5 km/h (4 Bft) 99 %
18.11.2017 19:00 3,8 C 3,8 C 3,8 C 83 % 1019,7 hPa 0,0 l/m 8,1 km/h (2 Bft) SW 230 0 min 0,000 mm 0 W/m 1,2 C 2,3 C 22,5 km/h (4 Bft) 100 %
18.11.2017 19:10 3,8 C 3,8 C 3,8 C 83 % 1019,7 hPa 0,0 l/m 9,5 km/h (2 Bft) W 263 0 min 0,025 mm 0 W/m 1,2 C 1,1 C 22,5 km/h (4 Bft) 100 %
18.11.2017 19:20 3,7 C 3,7 C 3,8 C 83 % 1019,6 hPa 0,0 l/m 6,8 km/h (2 Bft) SW 228 0 min 0,001 mm 0 W/m 1,1 C 3,3 C 17,7 km/h (3 Bft) 100 %
18.11.2017 19:30 3,7 C 3,7 C 3,7 C 83 % 1019,6 hPa 0,0 l/m 8,3 km/h (2 Bft) W 261 0 min 0,000 mm 0 W/m 1,1 C 2,0 C 22,5 km/h (4 Bft) 100 %
18.11.2017 19:40 3,7 C 3,7 C 3,7 C 83 % 1019,5 hPa 0,0 l/m 8,8 km/h (2 Bft) SW 223 0 min 0,000 mm 0 W/m 1,1 C 1,6 C 20,9 km/h (4 Bft) 98 %
18.11.2017 19:50 3,7 C 3,6 C 3,7 C 84 % 1019,5 hPa 0,0 l/m 9,8 km/h (2 Bft) S-SW 207 0 min 0,000 mm 0 W/m 1,3 C 0,8 C 19,3 km/h (3 Bft) 99 %
18.11.2017 20:00 3,6 C 3,6 C 3,7 C 84 % 1019,3 hPa 0,0 l/m 10,5 km/h (2 Bft) SW 226 0 min 0,000 mm 0 W/m 1,2 C 0,2 C 22,5 km/h (4 Bft) 100 %
18.11.2017 20:10 3,6 C 3,6 C 3,6 C 84 % 1019,2 hPa 0,0 l/m 10,7 km/h (2 Bft) SW 220 0 min 0,025 mm 0 W/m 1,2 C 0,0 C 25,7 km/h (4 Bft) 100 %
18.11.2017 20:20 3,6 C 3,6 C 3,6 C 84 % 1019,2 hPa 0,0 l/m 12,8 km/h (3 Bft) SW 217 0 min 0,000 mm 0 W/m 1,2 C -1,4 C 27,4 km/h (4 Bft) 100 %
18.11.2017 20:30 3,7 C 3,6 C 3,7 C 84 % 1019,3 hPa 0,0 l/m 9,6 km/h (2 Bft) SW 229 0 min 0,000 mm 0 W/m 1,3 C 0,9 C 24,1 km/h (4 Bft) 100 %
18.11.2017 20:40 3,7 C 3,6 C 3,7 C 84 % 1019,4 hPa 0,0 l/m 8,8 km/h (2 Bft) SW 225 0 min 0,000 mm 0 W/m 1,3 C 1,6 C 24,1 km/h (4 Bft) 100 %
18.11.2017 20:50 3,7 C 3,7 C 3,7 C 84 % 1019,2 hPa 0,0 l/m 12,2 km/h (2 Bft) W-SW 257 0 min 0,000 mm 0 W/m 1,3 C -0,9 C 32,2 km/h (5 Bft) 100 %
18.11.2017 21:00 3,7 C 3,7 C 3,7 C 84 % 1019,4 hPa 0,0 l/m 12,9 km/h (3 Bft) W 262 0 min 0,000 mm 0 W/m 1,3 C -1,3 C 24,1 km/h (4 Bft) 100 %
18.11.2017 21:10 3,8 C 3,7 C 3,8 C 84 % 1019,3 hPa 0,0 l/m 10,1 km/h (2 Bft) SW 235 0 min 0,025 mm 0 W/m 1,4 C 0,7 C 24,1 km/h (4 Bft) 100 %
18.11.2017 21:20 3,8 C 3,8 C 3,8 C 83 % 1019,2 hPa 0,0 l/m 9,4 km/h (2 Bft) SW 217 0 min 0,001 mm 0 W/m 1,2 C 1,2 C 17,7 km/h (3 Bft) 100 %
18.11.2017 21:30 3,8 C 3,8 C 3,8 C 84 % 1019,1 hPa 0,0 l/m 8,4 km/h (2 Bft) SW 230 0 min 0,000 mm 0 W/m 1,4 C 2,0 C 17,7 km/h (3 Bft) 99 %
18.11.2017 21:40 3,8 C 3,7 C 3,8 C 84 % 1019,1 hPa 0,0 l/m 7,2 km/h (2 Bft) SW 223 0 min 0,000 mm 0 W/m 1,4 C 3,1 C 16,1 km/h (3 Bft) 100 %
18.11.2017 21:50 3,7 C 3,7 C 3,8 C 84 % 1018,9 hPa 0,0 l/m 5,8 km/h (2 Bft) SW 232 0 min 0,000 mm 0 W/m 1,3 C 3,7 C 11,3 km/h (2 Bft) 100 %
18.11.2017 22:00 3,7 C 3,7 C 3,7 C 84 % 1018,8 hPa 0,0 l/m 4,1 km/h (1 Bft) S-SW 196 0 min 0,000 mm 0 W/m 1,3 C 3,7 C 16,1 km/h (3 Bft) 100 %
18.11.2017 22:10 3,7 C 3,7 C 3,7 C 84 % 1018,6 hPa 0,0 l/m 7,5 km/h (2 Bft) S-SW 206 0 min 0,025 mm 0 W/m 1,3 C 2,7 C 17,7 km/h (3 Bft) 100 %
18.11.2017 22:20 3,7 C 3,7 C 3,7 C 85 % 1018,5 hPa 0,0 l/m 10,4 km/h (2 Bft) SW 221 0 min 0,000 mm 0 W/m 1,4 C 0,3 C 22,5 km/h (4 Bft) 91 %
18.11.2017 22:30 3,7 C 3,7 C 3,7 C 84 % 1018,2 hPa 0,0 l/m 8,6 km/h (2 Bft) W-SW 245 0 min 0,000 mm 0 W/m 1,3 C 1,7 C 22,5 km/h (4 Bft) 100 %
18.11.2017 22:40 3,7 C 3,7 C 3,7 C 85 % 1018,5 hPa 0,0 l/m 7,0 km/h (2 Bft) SW 234 0 min 0,000 mm 0 W/m 1,4 C 3,1 C 19,3 km/h (3 Bft) 99 %
18.11.2017 22:50 3,7 C 3,7 C 3,7 C 85 % 1018,4 hPa 0,0 l/m 8,0 km/h (2 Bft) SW 223 0 min 0,000 mm 0 W/m 1,4 C 2,2 C 19,3 km/h (3 Bft) 99 %
18.11.2017 23:00 3,7 C 3,7 C 3,7 C 85 % 1018,3 hPa 0,0 l/m 8,9 km/h (2 Bft) SW 217 0 min 0,000 mm 0 W/m 1,4 C 1,5 C 22,5 km/h (4 Bft) 100 %
18.11.2017 23:10 3,7 C 3,7 C 3,8 C 85 % 1018,2 hPa 0,0 l/m 10,1 km/h (2 Bft) SW 219 0 min 0,025 mm 0 W/m 1,4 C 0,6 C 24,1 km/h (4 Bft) 100 %
18.11.2017 23:20 3,8 C 3,7 C 3,8 C 85 % 1018,1 hPa 0,0 l/m 10,1 km/h (2 Bft) SW 227 0 min 0,000 mm 0 W/m 1,5 C 0,7 C 33,8 km/h (5 Bft) 99 %
18.11.2017 23:30 3,8 C 3,8 C 3,8 C 85 % 1017,8 hPa 0,0 l/m 8,7 km/h (2 Bft) W-SW 248 0 min 0,000 mm 0 W/m 1,5 C 1,8 C 25,7 km/h (4 Bft) 100 %
18.11.2017 23:40 3,9 C 3,8 C 3,9 C 85 % 1017,8 hPa 0,0 l/m 10,2 km/h (2 Bft) W-SW 239 0 min 0,000 mm 0 W/m 1,6 C 0,7 C 20,9 km/h (4 Bft) 100 %
18.11.2017 23:50 3,9 C 3,9 C 3,9 C 84 % 1017,4 hPa 0,0 l/m 10,9 km/h (2 Bft) SW 230 0 min 0,000 mm 0 W/m 1,4 C 0,2 C 30,6 km/h (5 Bft) 100 %
_ Min-Zeit 08:10 08:10 08:20 15:50 23:50 - 00:00 - - - - - 16:40 20:20 00:00 22:20
Minimum _ 2,7 C 2,7 C 2,7 C 78 % 1017,4 hPa - 0,0 km/h (0 Bft) - - - - - 0,8 C -1,4 C 0,0 km/h (0 Bft) 91 %
_ Max-Zeit 14:10 14:20 14:10 00:40 00:00 00:00 14:30 - - 12:00 12:00 12:00 12:40 14:00 23:20 00:00
Maximum _ 5,6 C 5,5 C 5,6 C 92 % 1024,9 hPa 0,0 l/m 16,2 km/h
W-NW (3 Bft)
- - 10 min 0,051 mm 163 W/m 3,7 C 5,3 C 33,8 km/h
SW (5 Bft)
100 %
Durchschnitt _ 3,8 C 3,8 C 3,9 C 88 % 1021,7 hPa #0,0 l/m 5,0 km/h (1 Bft) SW - #20 min. #0,406 mm 52 W/m 2,0 C 2,8 C 12,6 km/h (3 Bft) 99 %
PRIVATE WETTERSTATION BILLIGHEIM-ALLFELD - www.neckar-odenwald-wetter.de - Holger Sonntag